VK7ED-13 Richmond AU current weather conditions

sailwx.info

Wind from 282 at 7 knots gusting 19

Air temperature 7.2° C
Dewpoint 7.2° C

Last reported at 2018-Aug-20 16:01 UTC.
Time now 2018-Aug-20 16:21 UTC

Location: S 42°44' E 147°26'.
View on Google Maps.

See reports from other nearby stations

  
Tides and Currents Weather Stations Pressure Air Temp Water Temp Dewpoint Dewpoint Depression Visibility Wind Speed Wind Dir Waves Ship Positions
date/time (UTC)wind fromknots sea level pressurealtimeterstation pressurevisibilityair tempwater tempwave heightnotes
2018-Aug-20 16:01 282 7 gusting 19 7.2
2018-Aug-20 15:52 263 3 gusting 19 7.2
2018-Aug-20 15:43 281 3 gusting 12 6.7
2018-Aug-20 15:34 295 2 gusting 7 6.7
2018-Aug-20 15:25 302 2 gusting 8 6.7
2018-Aug-20 15:16 328 3 gusting 7 6.7
2018-Aug-20 15:07 302 3 gusting 8 6.7
2018-Aug-20 14:58 269 6 gusting 11 7.2
2018-Aug-20 14:49 256 6 gusting 18 7.2
2018-Aug-20 14:40 268 6 gusting 21 7.2
2018-Aug-20 14:31 285 6 gusting 21 7.2
2018-Aug-20 14:22 285 6 gusting 18 7.2
2018-Aug-20 14:13 273 6 gusting 23 7.2
2018-Aug-20 14:04 281 6 gusting 22 7.2
2018-Aug-20 13:55 277 6 gusting 25 7.2
2018-Aug-20 13:46 277 7 gusting 20 7.2
2018-Aug-20 13:37 277 6 gusting 18 7.2
2018-Aug-20 13:28 271 6 gusting 14 7.2
2018-Aug-20 13:19 279 6 gusting 15 7.2
2018-Aug-20 13:10 298 6 gusting 20 6.7
2018-Aug-20 13:01 287 5 gusting 12 6.7
2018-Aug-20 12:52 279 5 gusting 12 7.2
2018-Aug-20 12:43 284 6 gusting 19 6.7
2018-Aug-20 12:34 282 6 gusting 14 7.2
2018-Aug-20 12:25 285 5 gusting 15 7.2
2018-Aug-20 12:16 282 4 gusting 11 6.7
2018-Aug-20 12:07 304 5 gusting 11 6.7
2018-Aug-20 11:58 297 5 gusting 13 6.7
2018-Aug-20 11:49 291 5 gusting 13 6.7
2018-Aug-20 11:40 303 4 gusting 13 6.7
2018-Aug-20 11:31 311 5 gusting 7 6.7
2018-Aug-20 11:22 297 6 gusting 13 7.2
2018-Aug-20 11:13 286 6 gusting 19 7.2
2018-Aug-20 11:04 285 6 gusting 29 7.2
2018-Aug-20 10:55 291 7 gusting 19 7.2
2018-Aug-20 10:46 272 8 gusting 26 7.2
2018-Aug-20 10:37 264 7 gusting 26 7.2
2018-Aug-20 10:28 256 8 gusting 18 7.2
2018-Aug-20 10:19 253 6 gusting 19 7.2
2018-Aug-20 10:10 276 5 gusting 12 7.2
2018-Aug-20 10:01 273 4 gusting 13 7.2
2018-Aug-20 09:52 289 6 gusting 19 7.2
2018-Aug-20 09:43 286 7 gusting 19 7.2
2018-Aug-20 09:34 293 7 gusting 16 7.2
2018-Aug-20 09:25 299 9 gusting 28 7.2
2018-Aug-20 09:16 309 6 gusting 27 7.2
2018-Aug-20 09:07 306 7 gusting 15 7.2
2018-Aug-20 08:58 280 7 gusting 21 7.2
2018-Aug-20 08:49 302 7 gusting 17 7.2
2018-Aug-20 08:40 287 6 gusting 25 7.2
2018-Aug-20 08:31 282 6 gusting 15 7.2
2018-Aug-20 08:22 287 8 gusting 20 7.2
2018-Aug-20 08:13 279 9 gusting 27 7.8
2018-Aug-20 08:04 281 9 gusting 20 7.8
2018-Aug-20 07:55 279 9 gusting 22 7.8
2018-Aug-20 07:46 271 9 gusting 22 7.8
2018-Aug-20 07:37 285 9 gusting 22 7.8
2018-Aug-20 07:28 278 10 gusting 23 7.8
2018-Aug-20 07:19 290 11 gusting 26 7.8
2018-Aug-20 07:10 300 11 gusting 29 7.8
2018-Aug-20 07:01 288 9 gusting 23 7.8
2018-Aug-20 06:52 310 6 gusting 22 8.3
2018-Aug-20 06:43 305 6 gusting 16 8.3
2018-Aug-20 06:34 305 6 gusting 13 8.3
2018-Aug-20 06:25 315 6 gusting 26 8.3
2018-Aug-20 06:16 287 7 gusting 16 8.9
2018-Aug-20 06:07 282 7 gusting 20 8.3
2018-Aug-20 05:58 291 6 gusting 22 8.3
2018-Aug-20 05:49 335 4 gusting 13 7.8
2018-Aug-20 05:40 353 6 gusting 12 7.8
2018-Aug-20 05:31 354 6 gusting 13 7.8
2018-Aug-20 05:22 001 6 gusting 13 7.8
2018-Aug-20 05:13 355 6 gusting 14 7.8
2018-Aug-20 05:04 003 7 gusting 14 7.2
2018-Aug-20 04:55 002 8 gusting 19 7.8
2018-Aug-20 04:46 357 10 gusting 25 7.8
2018-Aug-20 04:37 358 9 gusting 19 7.8
2018-Aug-20 04:28 355 10 gusting 29 7.8
2018-Aug-20 04:19 349 9 gusting 23 7.8
2018-Aug-20 04:10 355 9 gusting 24 8.3
2018-Aug-20 04:01 356 9 gusting 31 8.3
2018-Aug-20 03:52 001 9 gusting 16 7.8
2018-Aug-20 03:43 351 10 gusting 20 7.8
2018-Aug-20 03:34 353 9 gusting 19 7.8
2018-Aug-20 03:25 357 9 gusting 19 7.2
2018-Aug-20 03:16 357 10 gusting 19 6.7
2018-Aug-20 03:07 358 9 gusting 19 6.7
2018-Aug-20 02:58 359 10 gusting 19 6.1
2018-Aug-20 02:49 355 9 gusting 20 6.1
2018-Aug-20 02:40 002 7 gusting 26 5.6
2018-Aug-20 02:31 002 7 gusting 15 5.6
2018-Aug-20 02:22 004 9 gusting 19 5.6
2018-Aug-20 02:13 360 9 gusting 27 5.6
2018-Aug-20 02:04 359 9 gusting 21 5.6